This demonstration page uses our WeatherBlox Daily Observations layout. Learn more.

Left ArrowRight Arrow

47.50024, -111.30081

Hourly Observations for May 26, 2019

Temp ( °F °C ) Dew Point ( °F °C ) Humidity (%) Winds ( mph kmh ) Pressure ( in mb ) Visibility ( mi km ) Precip ( " mm )
12:53 am 00:53 Cloudy with Light Rain 50 10 46 7.8 86 86 NE 10 17 29.91 1013 10 16 0.00 0.03
1:53 am 01:53 Partly Cloudy 50 10 46 7.8 86 86 NE 12 19 29.91 1013 10 16 0.00 0.03
2:53 am 02:53 Mostly Cloudy 50 10 46 7.8 86 86 ENE 9 15 29.90 1013 10 16 0.00 0.00
3:53 am 03:53 Cloudy 49 9.4 46 7.8 90 90 NNE 6 9 29.91 1013 10 16 0.00 0.00
4:53 am 04:53 Cloudy with Light Rain 48 8.9 47 8.3 96 96 ENE 10 17 29.91 1013 10 16 0.00 0.03
5:53 am 05:53 Cloudy 48 8.9 47 8.3 96 96 ENE 14 22 29.91 1013 10 16 0.03 0.76
6:53 am 06:53 Cloudy 48 8.9 48 8.9 100 100 NE 12 19 29.93 1013 10 16 0.00 0.03
7:14 am 07:14 Cloudy 48 8.9 48 8.9 100 100 NE 13 20 29.93 1014 10 16 0.00 0.00
7:53 am 07:53 Cloudy 49 9.4 48 8.9 97 97 NE 14 22 29.95 1014 10 16 0.00 0.03
8:35 am 08:35 Cloudy with Light Rain 47 8.3 47 8.3 100 100 ENE 18 30 29.95 1014 3 4 0.07 1.78
8:50 am 08:50 Cloudy with Light Rain 46 8 46 8 100 100 ENE 15 24 29.95 1014 4 6 0.14 3.56
8:53 am 08:53 Cloudy with Light Rain 47 8.3 47 8.3 100 100 ENE 14 22 29.96 1015 5 8 0.14 3.56
9:53 am 09:53 Cloudy 48 8.9 48 8.9 100 100 NE 17 28 29.98 1015 7 11 0.00 0.03
10:53 am 10:53 Cloudy with Mist and Fog 48 8.9 48 8.9 100 100 NE 14 22 29.98 1015 5 8 0.00 0.00
11:53 am 11:53 Cloudy 50 10 50 10 100 100 NE 20 31 29.98 1015 8 13 0.00 0.00
12:10 pm 12:10 Cloudy 51 10.6 50 10 96 96 NE 21 33 29.93 1013 10 16 0.00 0.00
12:53 pm 12:53 Cloudy 51 10.6 50 10 96 96 NE 18 30 29.98 1015 10 16 0.00 0.00
1:49 pm 13:49 Cloudy with Light Rain 48 9 48 9 100 100 ENE 18 30 29.96 1015 4 6 0.03 0.76
1:53 pm 13:53 Cloudy with Light Rain 49 9.4 49 9.4 100 100 ENE 17 28 29.99 1016 4 6 0.03 0.76
2:04 pm 14:04 Cloudy with Rain 49 9.4 49 9.4 100 100 ENE 20 31 29.96 1014 3 4 0.03 0.76
2:34 pm 14:34 Cloudy with Rain 49 9.4 49 9.4 100 100 NE 23 37 29.96 1014 3 4 0.11 2.79
2:53 pm 14:53 Cloudy with Light Rain 50 10 50 10 100 100 NE 20 31 29.99 1016 3 4 0.16 4.06
3:10 pm 15:10 Mostly Cloudy with Light Rain 49 9.4 49 9.4 100 100 NE 20 31 29.97 1015 7 11 0.01 0.25
3:53 pm 15:53 Cloudy with Light Rain 49 9.4 49 9.4 100 100 NE 20 31 30.01 1016 5 8 0.04 1.02
4:34 pm 16:34 Cloudy with Mist and Fog 49 9.4 49 9.4 100 100 NE 20 31 29.96 1014 5 8 0.00 0.03
4:53 pm 16:53 Cloudy with Mist and Fog 49 9.4 49 9.4 100 100 NE 23 37 30.00 1016 6 10 0.00 0.03
5:06 pm 17:06 Cloudy with Light Rain 49 9.4 49 9.4 100 100 NE 18 30 29.96 1014 5 8 0.00 0.03
5:36 pm 17:36 Cloudy with Mist and Fog 49 9.4 49 9.4 100 100 NE 22 35 29.96 1014 5 8 0.00 0.03
5:53 pm 17:53 Cloudy with Mist and Fog 49 9.4 49 9.4 100 100 NE 18 30 30.01 1016 5 8 0.00 0.03
6:10 pm 18:10 Cloudy with Light Rain 49 9.4 49 9.4 100 100 NE 17 28 29.97 1015 5 8 0.00 0.03
6:53 pm 18:53 Cloudy with Mist and Fog 50 10 50 10 100 100 NE 17 28 30.02 1017 6 10 0.01 0.25
7:40 pm 19:40 Cloudy with Mist and Fog 49 9.4 49 9.4 100 100 NE 18 30 29.98 1015 5 8 0.00 0.00
7:53 pm 19:53 Cloudy with Mist and Fog 49 9.4 49 9.4 100 100 NE 18 30 30.02 1017 5 8 0.00 0.00
8:10 pm 20:10 Cloudy with Mist and Fog 49 9.4 49 9.4 100 100 NE 18 30 29.97 1015 5 8 0.00 0.00
8:34 pm 20:34 Cloudy with Mist and Fog 49 9.4 49 9.4 100 100 NE 15 24 29.98 1015 5 8 0.00 0.00
8:53 pm 20:53 Cloudy with Mist and Fog 49 9.4 49 9.4 100 100 NE 16 26 30.03 1017 6 10 0.00 0.00
9:05 pm 21:05 Cloudy 49 9.4 49 9.4 100 100 NE 15 24 29.98 1015 7 11 0.00 0.00
9:53 pm 21:53 Cloudy 49 9.4 49 9.4 100 100 NE 13 20 30.05 1018 7 11 0.00 0.00
10:38 pm 22:38 Cloudy 49 9.4 49 9.4 100 100 NE 10 17 30.00 1016 8 13 0.00 0.00
10:53 pm 22:53 Cloudy 48 8.9 48 8.9 100 100 NE 14 22 30.05 1018 8 13 0.00 0.00
11:40 pm 23:40 Cloudy 48 8.9 48 8.9 100 100 NE 13 20 30.00 1016 9 14 0.00 0.00
11:50 pm 23:50 Cloudy 48 9 48 9 100 100 NE 14 22 30.00 1016 9 14 0.00 0.00
11:53 pm 23:53 Cloudy with Light Rain 48 8.9 48 8.9 100 100 NE 13 20 30.04 1017 9 14 0.00 0.03

Powered by AerisWeather